Volver al catálogo

STARLINK-11662

ActivoComunicacionesVLEO
NORAD 63754·PAYLOAD·🇺🇸 United States

Lanzado Apr 29, 2025 desde Cape Canaveral Space Force Station

Loading…

Próximos Pases (próximas 24 horas)

TLE

ActualizadoSource: CelesTrak SupGP

Época: Sep 14, 2026, 22:32 UTC

1 63754C 25089D   26257.93937500  .00066364  00000+0  51551-3 0  2578
2 63754  43.0006 231.5967 0001392 260.0848 277.9319 15.70803402    15

Sigue STARLINK-11662 en tiempo real con AllMySat

Download on the App Store